Historique des stations

Station météo de Saint-Firmin-des-Bois

Altitude de la station : 148 m







Données météorologiques pour le 18/05/2021
Date
Heure
Températures Humidité Point de rosée Vitesse
du vent
Direction Rafales Windchill Pression Pluviométrie
Cumul
Date
Heure
Températures Humidité Point de rosée Vitesse
du vent
Direction Rafales Windchill Pression Pluviométrie
Cumul
18/05/2021 13:4515.1 °C72 %10.0 °C3 km/hO10 km/h15.0 1018 hPa-
18/05/2021 13:3014.4 °C76 %10.0 °C5 km/hOSO8 km/h14.4 1018 hPa-
18/05/2021 13:1513.4 °C78 %9.4 °C5 km/hSO8 km/h13.3 1018 hPa-
18/05/2021 13:0013.5 °C77 %9.4 °C2 km/hO6 km/h13.3 1018 hPa-
18/05/2021 12:4513.8 °C77 %10.0 °C3 km/hONO11 km/h13.9 1018 hPa-
18/05/2021 12:3113.2 °C78 %9.4 °C-OSO8 km/h13.3 1018 hPa-
18/05/2021 12:1613.1 °C78 %9.4 °C2 km/hO11 km/h13.3 1018 hPa-
18/05/2021 12:0013.2 °C78 %9.4 °C3 km/hSSO10 km/h13.3 1018 hPa-
18/05/2021 11:4513.0 °C80 %9.4 °C3 km/hOSO10 km/h12.8 1018 hPa-
18/05/2021 11:2912.8 °C83 %10.0 °C3 km/hOSO6 km/h12.8 1018 hPa-
18/05/2021 11:1512.4 °C88 %10.6 °C6 km/hSO8 km/h12.2 1018 hPa-
18/05/2021 11:0011.5 °C89 %10.0 °C6 km/hSSO8 km/h11.7 1019 hPa-
18/05/2021 10:4511.2 °C90 %9.4 °C5 km/hSO8 km/h11.1 1019 hPa-
18/05/2021 10:3011.0 °C90 %9.4 °C3 km/hSO8 km/h11.1 1019 hPa-
18/05/2021 10:1510.9 °C90 %9.4 °C8 km/hSO8 km/h10.0 1019 hPa-
18/05/2021 10:0011.1 °C90 %9.4 °C5 km/hSSO10 km/h11.1 1019 hPa-
18/05/2021 09:4511.0 °C91 %9.4 °C6 km/hSO8 km/h11.1 1019 hPa-
18/05/2021 09:3010.9 °C90 %9.4 °C3 km/hO8 km/h11.1 1019 hPa-
18/05/2021 09:1510.6 °C92 %9.4 °C5 km/hSO11 km/h10.6 1018 hPa-
18/05/2021 09:0010.2 °C93 %9.4 °C5 km/hSO8 km/h9.4 1018 hPa-
18/05/2021 08:459.9 °C94 %8.9 °C5 km/hSO8 km/h9.4 1018 hPa-
18/05/2021 08:299.7 °C95 %8.9 °C5 km/hSSO13 km/h9.4 1018 hPa-
18/05/2021 08:159.5 °C96 %8.9 °C5 km/hSSO8 km/h8.9 1018 hPa-
18/05/2021 08:009.3 °C97 %8.9 °C5 km/hSSO6 km/h8.9 1018 hPa-
18/05/2021 07:459.1 °C97 %8.9 °C6 km/hSSO13 km/h7.8 1018 hPa-
18/05/2021 07:309.0 °C97 %8.3 °C5 km/hSO8 km/h8.3 1018 hPa-
18/05/2021 07:158.7 °C97 %8.3 °C3 km/hSO6 km/h8.3 1018 hPa-
18/05/2021 07:008.7 °C97 %8.3 °C6 km/hSO8 km/h7.8 1018 hPa-
18/05/2021 06:458.6 °C97 %8.3 °C3 km/hSO6 km/h8.3 1018 hPa-
18/05/2021 06:308.4 °C97 %7.8 °C3 km/hSO10 km/h7.8 1018 hPa-
18/05/2021 06:158.3 °C97 %7.8 °C5 km/hSO6 km/h7.8 1018 hPa-
18/05/2021 06:008.3 °C97 %7.8 °C5 km/hSO6 km/h7.8 1018 hPa-
18/05/2021 05:448.5 °C97 %8.3 °C5 km/hSO5 km/h7.8 1018 hPa-
18/05/2021 05:308.3 °C97 %7.8 °C3 km/hSO5 km/h7.8 1018 hPa-
18/05/2021 05:158.2 °C96 %7.8 °C2 km/hSO5 km/h8.3 1018 hPa-
18/05/2021 05:008.4 °C96 %7.8 °C3 km/hSO5 km/h7.8 1017 hPa-
18/05/2021 04:458.6 °C96 %8.3 °C3 km/hSSO5 km/h8.3 1018 hPa-
18/05/2021 04:308.9 °C96 %8.3 °C3 km/hSO6 km/h8.3 1017 hPa-
18/05/2021 04:159.2 °C96 %8.9 °C5 km/hSO6 km/h8.9 1018 hPa-
18/05/2021 04:009.3 °C96 %8.9 °C6 km/hSO8 km/h8.3 1018 hPa-
18/05/2021 03:459.3 °C96 %8.9 °C5 km/hSO8 km/h8.9 1018 hPa-
18/05/2021 03:309.3 °C95 %8.9 °C3 km/hOSO6 km/h8.9 1018 hPa-
18/05/2021 03:169.4 °C95 %8.9 °C3 km/hOSO6 km/h8.9 1018 hPa-
18/05/2021 03:019.4 °C94 %8.3 °C6 km/hSO8 km/h8.3 1018 hPa-
18/05/2021 02:459.5 °C94 %8.9 °C2 km/hO6 km/h9.4 1017 hPa-
18/05/2021 02:309.7 °C93 %8.9 °C2 km/hOSO6 km/h10.0 1018 hPa-
18/05/2021 02:159.8 °C93 %8.9 °C6 km/hOSO11 km/h8.9 1017 hPa-
18/05/2021 02:0010.0 °C94 %8.9 °C3 km/hOSO8 km/h9.4 1017 hPa-
18/05/2021 01:4510.1 °C95 %9.4 °C3 km/hOSO13 km/h9.4 1017 hPa-
18/05/2021 01:3010.1 °C95 %9.4 °C3 km/hOSO10 km/h9.4 1017 hPa-
18/05/2021 01:1510.1 °C95 %9.4 °C5 km/hOSO11 km/h9.4 1017 hPa-
18/05/2021 01:0010.2 °C95 %9.4 °C2 km/hOSO8 km/h10.0 1017 hPa-
18/05/2021 00:4510.2 °C94 %9.4 °C3 km/hO6 km/h9.4 1017 hPa-
18/05/2021 00:3010.3 °C95 %9.4 °C3 km/hOSO5 km/h10.6 1017 hPa-
18/05/2021 00:1510.2 °C95 %9.4 °C3 km/hO10 km/h9.4 1017 hPa-
18/05/2021 00:0010.3 °C95 %9.4 °C5 km/hSO6 km/h10.6 1017 hPa-


Minima :

Température : 8.2 °C
Humidité : 72 %
Point de rosée : 7.8 °C
Vent moyen : 2 km/h
Windchill : 7.8
Pression atm. : 1017 hPa
Maxima :

Température : 15.1 °C
Humidité : 97 %
Point de rosée : 10.6 °C
Vent moyen : 8 km/h
Windchill : 15.0
Pression atm. : 1019 hPa
Rafales max : 13 km/h
Cumul de pluie sur 24H : 0 mm

Saint-Firmin-des-Bois est une commune du département Loiret (45).
La station météorologique du réseau de l'association la plus proche de Saint-Firmin-des-Bois est celle de Cudot



Icône Facebook Association Météo Centre Icône Twitter Association Météo Centre Icône Chaîne Youtube Association Météo Centre Icône contact Association Météo Centre Icône Insta Association Météo Centre